Overview Statistics Trail Chart Weather Telemetry Raw packets
 

This is the latest recevied weather packets stored in our database for station/object N6GPM. If no packets are shown the sender has not sent any weather packets the latest 10 day(s).

<< 65 66 67 68 69 70 71 >>
Time Temp. Humidity Pressure Rain* Wind** Luminosity Snow
1788224499 28.33° C 41% 1016.4 hPa 0 mm - 131 W/m² -
1788224198 27.78° C 41% 1016.7 hPa 0 mm - 145 W/m² -
1788223894 28.33° C 37% 1016.6 hPa 0 mm - 163 W/m² -
1788223593 28.33° C 36% 1016.5 hPa 0 mm - 177 W/m² -
1788223288 28.33° C 36% 1016.5 hPa 0 mm - 194 W/m² -
1788222983 28.89° C 35% 1016.4 hPa 0 mm - 212 W/m² -
1788222681 28.89° C 26% 1016.6 hPa 0 mm - 236 W/m² -
1788222376 28.89° C 34% 1016.6 hPa 0 mm - 248 W/m² -
1788222071 28.89° C 36% 1016.3 hPa 0 mm - 271 W/m² -
1788221766 28.89° C 34% 1016.5 hPa 0 mm - 294 W/m² -
1788221461 28.89° C 30% 1016.4 hPa 0 mm - 319 W/m² -
1788221156 28.89° C 33% 1016.4 hPa 0 mm - 332 W/m² -
1788220852 28.89° C 31% 1016.5 hPa 0 mm - 355 W/m² -
1788220545 29.44° C 29% 1016.6 hPa 0 mm - 371 W/m² -
1788220240 29.44° C 30% 1016.6 hPa 0 mm - 397 W/m² -
1788219935 28.89° C 31% 1016.4 hPa 0 mm - 416 W/m² -
1788219631 29.44° C 30% 1016.6 hPa 0 mm - 433 W/m² -
1788219325 30° C 28% 1016.7 hPa 0 mm - 454 W/m² -
1788219021 29.44° C 33% 1016.5 hPa 0 mm - 475 W/m² -
1788218716 30° C 33% 1016.4 hPa 0 mm - 498 W/m² -
1788218413 30° C 35% 1016.5 hPa 0 mm - 512 W/m² -
1788218109 29.44° C 39% 1016.6 hPa 0 mm - 531 W/m² -
1788217804 30° C 39% 1016.4 hPa 0 mm - 546 W/m² -
1788217499 30° C 37% 1016.3 hPa 0 mm - 567 W/m² -
1788217193 30° C 38% 1016.7 hPa 0 mm - 589 W/m² -

* Rain latest hour (hover to see other rain measurements)
** Current wind speed in m/s (hover to see current wind gust speed)